Regional Weather Roundup
Issued by NWS New Orleans/Baton Rouge, LA

Home | Current Version | Previous Version | Text Only | Print | Product List | Glossary Off
Versions: 1 2 3 4 5 6 7 8 9 10 11 12 13 14 15 16 17 18 19 20 21 22 23 24 25 26 27 28 29 30 31 32 33 34 35 36 37 38 39 40 41 42 43 44 45 46 47 48 49 50

433
ASUS44 KLIX 280105
RWRLIX
NEW ORLEANS REGIONAL WEATHER ROUNDUP
NATIONAL WEATHER SERVICE NEW ORLEANS LA
800 PM CDT SUN JUL 27 2014

NOTE: "FAIR" INDICATES FEW OR NO CLOUDS BELOW 12,000 FEET WITH NO
      SIGNIFICANT WEATHER AND/OR OBSTRUCTIONS TO VISIBILITY.
      SKY/WX - SKY CONDITION AND SIGNIFICANT WEATHER.
      TMP - AIR TEMPERATURE.     DP    - DEWPOINT TEMPERATURE.
      RH  - RELATIVE HUMIDITY.   PRES  - PRESSURE.
      HI  - HEAT INDEX.          WCI   - WIND CHILL INDEX.

*  THESE STATIONS ARE NOT NWS OR FAA STATIONS AND ARE NOT UNDER
   NWS QUALITY CONTROL.

LAZ038-040-048-061>063-065>067-069-280200-
SOUTHEAST LOUISIANA

CITY           SKY/WX    TMP DP  RH WIND       PRES   REMARKS
N.O. AUDUBON     N/A     88  76  67 MISG        N/A  HX  98
N.O. INTL ARPT MOCLDY    84  74  71 W9        30.02S
N.O. LAKEFRONT MOCLDY    88  74  63 SW10      30.03R HX  96
N.O. DOWNTOWN* MOCLDY    88  72  58 SW7       30.03S
SLIDELL        PTCLDY    87  74  64 S3        30.01S HX  95
BATON ROUGE    PTCLDY    86  74  67 SW13      30.02R
BOOTHVILLE     PTCLDY    85  78  80 SW10      30.05S HX  96
BELLE CHASSE   PTCLDY    84  76  76 SW3       30.03R
BOGALUSA*        N/A     87  76  70 CALM      30.02F HX  97
GALLIANO*      NOT AVBL
NEW ROADS*       N/A     87  77  72 S9        30.02S HX  98
GONZALES*        N/A     84  78  81 CALM      30.03R HX  95
HAMMOND*       PTCLDY    88  72  58 W3        30.03F
HOUMA*         MOCLDY    85  73  67 W3        30.04S
PORT FOURCHON* CLEAR     86  75  70 SW9G16    30.07S HX  95

$$

MSZ070-080>082-280200-
SOUTHERN MISSISSIPPI

CITY           SKY/WX    TMP DP  RH WIND       PRES   REMARKS
MCCOMB         PTCLDY    86  75  69 CALM      30.03R HX  95
GULFPORT       PTCLDY    89  75  63 SW3       30.00S HX  99
BILOXI         CLEAR     86  77  76 SW10      30.01S HX  97
PASCAGOULA     CLEAR     84  77  79 SW5       30.01S

$$

COASTAL OBSERVATIONS
LAKE AND NEARSHORE STATIONS

STATION/POSITION TIME  TEMP    WIND        PRES    WAVE
                       AIR SEA DIR/SP/G            HT/PER
                 (UTC) (F)     (DEG/KT/KT) (MB)    (FT/S)
PASCAGOULA       0100   86     220/ 12/ 16 1015.7
WAVELAND YACHT   0100   87     230/  5/  9 1015.8
GRAND ISLE       0100   86 88  250/  9/ 12 1018.2
SOUTHWEST PASS   0100   85 85  250/ 15/ 17 1018.1
NEW CANAL        0100   88 86  250/  6/  8 1017.1
SHELL BEACH      0100   83 83  220/  7/  9 1016.8

OFFSHORE STATIONS

STATION/POSITION TIME  TEMP    WIND        PRES    WAVE
                       AIR SEA DIR/SP/G            HT/PER
                 (UTC) (F)     (DEG/KT/KT) (MB)    (FT/S)
64 S DAUPHIN ISL 0045   86 87  240/ 14/ 16 1017.4

$$




USA.gov is the U.S. government's official web portal to all federal, state and local government web resources and services.